When you browse on this site, cookies collect data to enhance your experience and personalize the content and advertising you see.
Visit our Privacy Policy to learn more. By continuing to use the site, you agree to this use of cookies and data.
  • In Spain
  • List of Countries
  • For 7 days
  • Water Temperature
  • Satellite Maps
  • Weather Map
  • Weather Widgets
  • user-avatar
    Login

    Hourly Weather Korçe

    Today, 23 March, Saturday

    Time Temperature Precipitation Wind Pressure Humidity
    00:00 +5°C° 0 mm 2 mps 669 mmHg 77%
    01:00 +4°C° 0 mm 2 mps 669 mmHg 76%
    02:00 +4°C° 0 mm 2 mps 669 mmHg 76%
    03:00 +4°C° 0 mm 2 mps 669 mmHg 76%
    04:00 +4°C° 0 mm 2 mps 669 mmHg 77%
    05:00 +4°C° 0 mm 2 mps 669 mmHg 74%
    06:00 +5°C° 0 mm 2 mps 669 mmHg 71%
    07:00 +5°C° 0 mm 3 mps 669 mmHg 64%
    08:00 +7°C° 0 mm 3 mps 669 mmHg 58%
    09:00 +9°C° 0 mm 3 mps 670 mmHg 52%
    10:00 +11°C° 0 mm 3 mps 670 mmHg 46%
    11:00 +12°C° 0 mm 3 mps 670 mmHg 44%
    12:00 +13°C° 0 mm 3 mps 670 mmHg 42%
    13:00 +14°C° 0 mm 3 mps 670 mmHg 41%
    14:00 +14°C° 0 mm 3 mps 670 mmHg 42%
    15:00 +14°C° 0 mm 3 mps 669 mmHg 43%
    16:00 +14°C° 0 mm 3 mps 669 mmHg 44%
    17:00 +13°C° 0 mm 2 mps 669 mmHg 50%
    18:00 +10°C° 0 mm 2 mps 668 mmHg 55%
    19:00 +8°C° 0 mm 2 mps 668 mmHg 60%
    20:00 +8°C° 0 mm 2 mps 668 mmHg 62%
    21:00 +7°C° 0 mm 2 mps 668 mmHg 63%
    22:00 +7°C° 0 mm 2 mps 668 mmHg 65%
    23:00 +6°C° 0 mm 2 mps 668 mmHg 66%

    Tomorrow, 24 March, Sunday

    Time Temperature Precipitation Wind Pressure Humidity
    00:00 +6°C° 0 mm 2 mps 668 mmHg 66%
    01:00 +6°C° 0 mm 2 mps 668 mmHg 67%
    02:00 +5°C° 0 mm 2 mps 668 mmHg 69%
    03:00 +5°C° 0 mm 2 mps 668 mmHg 70%
    04:00 +5°C° 0 mm 2 mps 668 mmHg 72%
    05:00 +5°C° 0 mm 2 mps 668 mmHg 71%
    06:00 +6°C° 0 mm 2 mps 668 mmHg 71%
    07:00 +6°C° 0 mm 2 mps 669 mmHg 71%
    08:00 +8°C° 0 mm 2 mps 669 mmHg 62%
    09:00 +10°C° 0 mm 2 mps 670 mmHg 54%
    10:00 +13°C° 0 mm 2 mps 670 mmHg 45%
    11:00 +14°C° 0 mm 2 mps 670 mmHg 41%
    12:00 +15°C° 0 mm 2 mps 670 mmHg 38%
    13:00 +16°C° 0 mm 2 mps 670 mmHg 34%
    14:00 +16°C° 0 mm 2 mps 670 mmHg 36%
    15:00 +15°C° 0 mm 2 mps 669 mmHg 37%
    16:00 +15°C° 0 mm 2 mps 669 mmHg 39%
    17:00 +13°C° 0 mm 2 mps 669 mmHg 47%
    18:00 +10°C° 0 mm 2 mps 668 mmHg 56%
    19:00 +9°C° 0 mm 1 mps 668 mmHg 64%
    20:00 +9°C° 0 mm 1 mps 668 mmHg 65%
    21:00 +8°C° 0 mm 1 mps 667 mmHg 65%
    22:00 +8°C° 0 mm 1 mps 667 mmHg 66%
    23:00 +7°C° 0 mm 0 mps 667 mmHg 66%

    Day after tomorrow, 25 March, Monday

    Time Temperature Precipitation Wind Pressure Humidity
    00:00 +6°C° 0 mm 0 mps 667 mmHg 65%
    01:00 +6°C° 0 mm 0 mps 667 mmHg 65%
    02:00 +6°C° 0 mm 0 mps 667 mmHg 66%
    03:00 +5°C° 0 mm 0 mps 666 mmHg 66%
    04:00 +5°C° 0 mm 0 mps 666 mmHg 67%
    05:00 +6°C° 0 mm 0 mps 666 mmHg 65%
    06:00 +7°C° 0 mm 0 mps 666 mmHg 62%
    07:00 +8°C° 0 mm 0 mps 666 mmHg 60%
    08:00 +10°C° 0 mm 1 mps 667 mmHg 54%
    09:00 +12°C° 0 mm 1 mps 667 mmHg 48%
    10:00 +14°C° 0 mm 2 mps 667 mmHg 43%
    11:00 +14°C° 0 mm 2 mps 667 mmHg 41%
    12:00 +15°C° 0 mm 2 mps 666 mmHg 39%
    13:00 +14°C° 0 mm 3 mps 666 mmHg 38%
    14:00 +14°C° 0 mm 3 mps 665 mmHg 41%
    15:00 +13°C° 0 mm 3 mps 665 mmHg 45%
    16:00 +13°C° 0 mm 3 mps 664 mmHg 48%
    17:00 +12°C° 0 mm 2 mps 664 mmHg 56%
    18:00 +9°C° 0 mm 2 mps 663 mmHg 64%
    19:00 +8°C° 0 mm 1 mps 663 mmHg 73%
    20:00 +8°C° 0 mm 1 mps 663 mmHg 75%
    21:00 +7°C° 0 mm 1 mps 662 mmHg 78%
    22:00 +5°C° 0 mm 0 mps 662 mmHg 80%
    23:00 +5°C° 0 mm 0 mps 662 mmHg 79%

    26 March, Tuesday

    Time Temperature Precipitation Wind Pressure Humidity
    00:00 +5°C° 0 mm 0 mps 662 mmHg 79%
    01:00 +4°C° 0 mm 0 mps 662 mmHg 78%
    02:00 +4°C° 0 mm 0 mps 662 mmHg 76%
    03:00 +4°C° 0 mm 0 mps 662 mmHg 74%
    04:00 +4°C° 0 mm 0 mps 662 mmHg 72%
    05:00 +5°C° 0 mm 0 mps 662 mmHg 69%
    06:00 +6°C° 0 mm 0 mps 662 mmHg 66%
    07:00 +6°C° 0 mm 0 mps 663 mmHg 64%
    08:00 +9°C° 0 mm 1 mps 663 mmHg 59%
    09:00 +11°C° 0 mm 1 mps 664 mmHg 54%
    10:00 +12°C° 0 mm 1 mps 664 mmHg 48%
    11:00 +13°C° 0.3 mm 2 mps 665 mmHg 48%
    12:00 +13°C° 0.3 mm 2 mps 665 mmHg 47%
    13:00 +13°C° 0.3 mm 2 mps 665 mmHg 47%
    14:00 +12°C° 1.1 mm 2 mps 665 mmHg 52%
    15:00 +12°C° 1.1 mm 2 mps 664 mmHg 58%
    16:00 +10°C° 1.1 mm 2 mps 664 mmHg 63%
    17:00 +9°C° 0.4 mm 2 mps 665 mmHg 67%
    18:00 +8°C° 0.4 mm 2 mps 665 mmHg 71%
    19:00 +7°C° 0.4 mm 2 mps 665 mmHg 75%
    20:00 +6°C° 0 mm 2 mps 665 mmHg 76%
    21:00 +5°C° 0 mm 2 mps 666 mmHg 77%
    22:00 +4°C° 0 mm 2 mps 666 mmHg 78%
    23:00 +4°C° 0 mm 2 mps 666 mmHg 78%

    27 March, Wednesday

    Time Temperature Precipitation Wind Pressure Humidity
    00:00 +3°C° 0 mm 2 mps 666 mmHg 79%
    01:00 +3°C° 0 mm 2 mps 666 mmHg 79%
    02:00 +2°C° 0 mm 2 mps 666 mmHg 78%
    03:00 +2°C° 0 mm 2 mps 666 mmHg 77%
    04:00 +1°C° 0 mm 2 mps 666 mmHg 76%
    05:00 +2°C° 0 mm 2 mps 666 mmHg 72%
    06:00 +2°C° 0 mm 2 mps 667 mmHg 69%
    07:00 +3°C° 0 mm 2 mps 667 mmHg 65%
    08:00 +5°C° 0 mm 2 mps 668 mmHg 60%
    09:00 +6°C° 0 mm 2 mps 668 mmHg 56%
    10:00 +8°C° 0 mm 2 mps 669 mmHg 51%
    11:00 +8°C° 0.1 mm 2 mps 669 mmHg 52%
    12:00 +9°C° 0.1 mm 2 mps 669 mmHg 52%
    13:00 +11°C° 0.1 mm 1 mps 669 mmHg 52%
    14:00 +10°C° 0.3 mm 1 mps 669 mmHg 55%
    15:00 +9°C° 0.3 mm 2 mps 668 mmHg 57%
    16:00 +9°C° 0.3 mm 2 mps 668 mmHg 59%
    17:00 +8°C° 0.2 mm 2 mps 668 mmHg 66%
    18:00 +7°C° 0.2 mm 2 mps 668 mmHg 72%
    19:00 +6°C° 0.2 mm 2 mps 668 mmHg 78%
    20:00 +5°C° 0.1 mm 2 mps 668 mmHg 80%
    21:00 +5°C° 0.1 mm 2 mps 668 mmHg 82%
    22:00 +5°C° 0.1 mm 2 mps 668 mmHg 85%
    23:00 +4°C° 0.1 mm 2 mps 668 mmHg 86%

    28 March, Thursday

    Time Temperature Precipitation Wind Pressure Humidity
    00:00 +4°C° 0.1 mm 2 mps 668 mmHg 86%
    01:00 +4°C° 0.1 mm 2 mps 668 mmHg 87%
    02:00 +4°C° 0 mm 2 mps 668 mmHg 87%
    03:00 +3°C° 0 mm 2 mps 667 mmHg 87%
    04:00 +3°C° 0 mm 2 mps 667 mmHg 86%
    05:00 +2°C° 0 mm 3 mps 668 mmHg 84%
    06:00 +3°C° 0 mm 3 mps 668 mmHg 82%
    07:00 +3°C° 0 mm 3 mps 668 mmHg 80%
    08:00 +4°C° 0 mm 3 mps 669 mmHg 74%
    09:00 +4°C° 0 mm 3 mps 669 mmHg 69%
    10:00 +5°C° 0 mm 4 mps 669 mmHg 64%
    11:00 +5°C° 0 mm 3 mps 669 mmHg 62%
    12:00 +7°C° 0 mm 3 mps 669 mmHg 59%
    13:00 +7°C° 0 mm 3 mps 669 mmHg 56%
    14:00 +7°C° 0 mm 3 mps 669 mmHg 56%
    15:00 +7°C° 0 mm 3 mps 669 mmHg 56%
    16:00 +7°C° 0 mm 3 mps 669 mmHg 56%
    17:00 +5°C° 0 mm 3 mps 669 mmHg 61%
    18:00 +4°C° 0 mm 2 mps 668 mmHg 66%
    19:00 +3°C° 0 mm 2 mps 668 mmHg 72%
    20:00 +2°C° 0 mm 2 mps 668 mmHg 73%
    21:00 +2°C° 0 mm 2 mps 669 mmHg 75%
    22:00 +1°C° 0 mm 2 mps 669 mmHg 76%
    23:00 +1°C° 0 mm 2 mps 669 mmHg 76%
    Show more